Location: Krakow
(50.0212°N, 19.9423°E)
Time: 07:57:00
(UTC+02:00)

NOAA 18 - Visible Passes

Search period start: 28 April 2025 00:00
Search period end: 08 May 2025 00:00
Orbit: 837 x 856 km, 98.8° (Epoch: 27 April)

Date Brightness Start Highest point End Pass type
(mag) Time Alt. Az. Time Alt. Az. Time Alt. Az.
28 Apr 6.8 21:10:40 11° ESE 21:14:30 22° NE 21:18:37 10° N visible
28 Apr 5.2 22:52:35 42° S 22:54:33 77° WSW 23:00:08 10° NNW visible
29 Apr 7.4 00:34:31 12° WSW 00:36:06 13° W 00:38:38 10° WNW visible
29 Apr 7.0 20:58:10 10° E 21:01:48 18° NE 21:05:26 10° NNE visible
29 Apr 5.2 22:39:28 39° SSE 22:41:40 86° ENE 22:47:15 10° NNW visible
30 Apr 7.2 00:21:23 15° WSW 00:23:00 17° W 00:26:31 10° NW visible
30 Apr 7.2 20:46:06 10° E 20:49:07 15° NE 20:52:08 10° NNE visible
30 Apr 5.3 22:26:20 34° SE 22:28:48 70° ENE 22:34:20 10° NNW visible
01 May 6.9 00:08:16 19° WSW 00:09:57 21° W 00:14:07 10° NW visible
01 May 7.3 20:34:16 10° ENE 20:36:28 12° NE 20:38:39 10° NNE visible
01 May 5.5 22:13:13 28° SE 22:15:58 56° ENE 22:21:24 10° N visible
01 May 6.7 23:55:08 22° WSW 23:56:55 26° W 00:01:33 10° NW visible
02 May 5.8 22:00:06 23° SE 22:03:09 46° ENE 22:08:26 10° N visible
02 May 6.4 23:42:00 26° SW 23:43:55 33° W 23:48:54 10° NNW visible
03 May 6.1 21:46:58 19° ESE 21:50:21 37° ENE 21:55:25 10° N visible
03 May 6.1 23:28:53 30° SW 23:30:56 41° W 23:36:10 10° NNW visible
04 May 6.3 21:33:51 15° ESE 21:37:35 31° ENE 21:42:22 10° N visible
04 May 5.7 23:15:46 33° SSW 23:17:58 51° W 23:23:24 10° NNW visible
05 May 6.6 21:20:43 11° ESE 21:24:50 25° ENE 21:29:17 10° N visible
05 May 5.4 23:02:38 34° S 23:05:02 65° WSW 23:10:35 10° NNW visible
06 May 7.6 00:45:40 10° W 00:46:45 11° W 00:47:51 10° WNW visible
06 May 6.8 21:08:05 10° ESE 21:12:07 21° NE 21:16:09 10° N visible
06 May 5.2 22:49:31 33° S 22:52:08 80° WSW 22:57:43 10° NNW visible
07 May 7.4 00:31:26 11° WSW 00:33:38 14° W 00:36:25 10° NW visible
07 May 7.0 20:55:54 10° E 20:59:24 18° NE 21:02:55 10° NNE visible
07 May 5.2 22:36:24 30° SSE 22:39:15 83° ENE 22:44:49 10° NNW visible
